User: anonymous   Login
Location: Unspecified
(0.0000°N, 0.0000°E)
Time: 04:18:56
(UTC+00:00)
Language:

CLOUDSAT - Orbit

View from above orbital plane
View from above orbital plane
View from above satellite
View from above satellite

Ground track
Ground track

The orbit data is extracted from the following two-line orbital elements,

1 29107U 06016A   18262.60991450 +.00000058 +00000-0 +20678-4 0  9995
2 29107 098.0836 205.3919 0001312 141.2352 218.8944 14.62209389659256
Epoch (UTC): 19 September 2018 14:38:16
Eccentricity: 0.0001312
inclination: 98.0836°
perigee height: 685 km
apogee height: 687 km
right ascension of ascending node: 205.3919°
argument of perigee: 141.2352°
revolutions per day: 14.62209389
mean anomaly at epoch: 218.8944°
orbit number at epoch: 65925

The dashed part of the orbit path shows where the satellite is in the earth's shadow,  

DLR